Stations météo

réclame
Mon MeteoGroup
Malmo/Sturup, Suède (2636): Température de l'air & dewpoint: 15.01.2019 17:00:00 - 21.01.2019 17:00:00 (CET)Malmo/Sturup, Suède (2636): Vitesse du vent: 15.01.2019 17:00:00 - 21.01.2019 17:00:00 (CET)Malmo/Sturup, Suède (2636): Direction du vent: 15.01.2019 17:00:00 - 21.01.2019 17:00:00 (CET)Malmo/Sturup, Suède (2636): reduced air pressure: 15.01.2019 17:00:00 - 21.01.2019 17:00:00 (CET)Malmo/Sturup, Suède (2636): visibility: 15.01.2019 17:00:00 - 21.01.2019 17:00:00 (CET)
Date & Time tt [°C] td [°C] ff [km/h] ff [knt] dd ppp [hPa] vv [km]
21.01.2019 17:00:00 0,0 0,0 16 9 S - 1,2
21.01.2019 16:00:00 0,5 0,2 21 11 SW 1012,9 1,1
21.01.2019 15:00:00 0,4 0,1 21 11 SW 1013,7 1,0
21.01.2019 14:00:00 0,1 -0,3 22 12 SW 1014,3 2,5
21.01.2019 13:00:00 -0,5 -0,9 24 13 SW 1014,9 2,6
21.01.2019 12:00:00 -1,0 -1,4 24 13 SSW 1015,7 1,6
21.01.2019 11:00:00 -1,2 -1,8 21 11 SW 1016,7 0,3
21.01.2019 10:00:00 0,4 -3,5 21 11 SW 1017,0 10
21.01.2019 09:00:00 0,7 -2,1 21 11 SW 1017,4 10
21.01.2019 08:00:00 0,3 -0,9 18 10 SW 1017,7 8
21.01.2019 07:00:00 0,5 -0,6 21 11 WSW 1018,1 7
21.01.2019 06:00:00 0,6 -0,5 18 10 WSW 1018,5 8
21.01.2019 05:00:00 0,7 0,0 15 8 WSW 1018,9 3,3
21.01.2019 04:00:00 0,5 -0,1 18 10 WSW 1019,4 2,6
21.01.2019 03:00:00 0,2 -0,2 16 9 WSW 1019,9 2,5
21.01.2019 02:00:00 -0,1 -0,2 16 9 WSW 1020,3 2,5
21.01.2019 01:00:00 0,0 -0,4 16 9 WSW 1020,5 2,5
21.01.2019 00:00:00 0,2 -0,2 16 9 W 1020,6 3,0
20.01.2019 23:00:00 0,2 -0,2 16 9 WSW 1020,5 3,0
20.01.2019 22:00:00 0,2 -0,2 15 8 WSW 1020,3 3,5
20.01.2019 21:00:00 0,5 -0,1 13 7 WSW 1020,0 3,5
20.01.2019 20:00:00 0,2 -0,5 11 6 WSW 1019,8 3,0
20.01.2019 19:00:00 0,6 0,0 13 7 W 1019,7 3,9
20.01.2019 18:00:00 0,2 -0,4 13 7 W 1019,4 3,0
20.01.2019 17:00:00 0,7 -0,3 11 6 W 1019,2 3,9
20.01.2019 16:00:00 1,0 -0,3 9 5 W 1019,0 6
20.01.2019 15:00:00 0,9 -0,6 11 6 W 1018,7 7
20.01.2019 14:00:00 0,9 -0,7 13 7 W 1018,7 6
20.01.2019 13:00:00 0,4 -0,7 16 9 W 1018,9 5
20.01.2019 12:00:00 0,5 -0,9 18 10 WSW 1018,8 6
20.01.2019 11:00:00 -0,4 -1,2 16 9 W 1018,9 4,5
20.01.2019 10:00:00 -0,8 -1,2 9 5 WSW 1018,5 3,5
20.01.2019 09:00:00 -2,0 -2,6 13 7 W 1018,1 4,0
20.01.2019 08:00:00 -1,4 -2,0 11 6 W 1017,7 4,0
20.01.2019 07:00:00 -1,4 -2,0 11 6 WSW 1017,4 5
20.01.2019 06:00:00 -1,0 -1,8 15 8 W 1017,7 5
20.01.2019 05:00:00 -1,1 -1,7 11 6 W 1017,6 5
20.01.2019 04:00:00 -1,3 -2,1 15 8 W 1018,0 5
20.01.2019 03:00:00 -0,6 -1,4 16 9 WSW 1018,0 6
20.01.2019 02:00:00 -0,4 -1,5 15 8 WSW 1017,9 8
20.01.2019 01:00:00 -0,3 -1,4 15 8 WSW 1017,9 7
20.01.2019 00:00:00 0,1 -1,0 11 6 WSW 1018,1 7
19.01.2019 23:00:00 0,1 -0,8 11 6 WSW 1018,2 6
19.01.2019 22:00:00 0,3 -0,3 11 6 WSW 1018,3 5
19.01.2019 21:00:00 0,3 -0,3 13 7 WSW 1018,0 4,2
19.01.2019 20:00:00 0,5 -0,2 11 6 W 1018,2 5
19.01.2019 19:00:00 0,7 0,1 15 8 W 1017,9 8
19.01.2019 18:00:00 0,6 0,0 13 7 W 1017,9 6
19.01.2019 17:00:00 0,6 0,0 18 10 W 1017,9 10
19.01.2019 16:00:00 0,4 0,1 15 8 W 1018,0 6
19.01.2019 15:00:00 0,0 -0,1 21 11 W 1018,1 4,5
19.01.2019 14:00:00 0,4 0,1 16 9 W 1018,3 3,0
19.01.2019 13:00:00 0,2 0,1 18 10 WSW 1018,5 0,5
19.01.2019 12:00:00 1,4 0,5 13 7 WSW 1018,5 9
19.01.2019 11:00:00 0,8 0,2 13 7 WSW 1018,4 9
19.01.2019 10:00:00 -0,5 -0,6 9 5 WSW 1018,2 10
19.01.2019 09:00:00 -2,4 -2,5 9 5 WSW 1017,8 10
19.01.2019 08:00:00 -3,7 -4,1 5 3 WSW 1017,4 10
19.01.2019 07:00:00 -3,0 -3,4 9 5 W 1017,0 10
19.01.2019 06:00:00 -2,1 -2,5 11 6 W 1017,0 0,5
19.01.2019 05:00:00 -3,2 -3,7 9 5 WSW 1017,0 2,4
19.01.2019 04:00:00 -3,0 -3,5 9 5 WSW 1016,8 10
19.01.2019 03:00:00 -1,9 -2,7 9 5 W 1016,8 10
19.01.2019 02:00:00 -1,1 -2,2 11 6 W 1016,7 10
19.01.2019 01:00:00 -1,3 -2,4 13 7 W 1016,5 10
19.01.2019 00:00:00 -0,8 -2,2 13 7 W 1016,0 10
18.01.2019 23:00:00 -0,1 -2,1 15 8 W 1015,8 10
18.01.2019 22:00:00 -0,3 -2,4 15 8 WSW 1015,5 10
18.01.2019 21:00:00 -0,3 -2,5 11 6 WSW 1015,2 10
18.01.2019 20:00:00 -1,6 -3,6 11 6 W 1014,9 10
18.01.2019 19:00:00 -1,5 -2,9 13 7 W 1014,7 10
18.01.2019 18:00:00 -1,7 -3,4 9 5 W 1014,6 10
18.01.2019 17:00:00 -0,8 -2,2 9 5 WSW 1014,2 10
18.01.2019 16:00:00 -0,3 -2,4 9 5 W 1013,9 10
18.01.2019 15:00:00 1,0 -1,6 11 6 W 1013,2 10
18.01.2019 14:00:00 1,0 -1,7 16 9 W 1013,0 10
18.01.2019 13:00:00 1,1 -2,0 16 9 WSW 1013,0 10
18.01.2019 12:00:00 0,6 -2,0 16 9 W 1012,6 10
18.01.2019 11:00:00 0,0 -2,5 9 5 W 1012,5 10
18.01.2019 10:00:00 -1,1 -3,1 11 6 W 1011,9 10
18.01.2019 09:00:00 -2,0 -3,9 15 8 W 1011,3 10
18.01.2019 08:00:00 -2,4 -4,0 13 7 W 1010,5 10
18.01.2019 07:00:00 -4,4 -5,6 9 5 W 1009,7 10
18.01.2019 06:00:00 -5,0 -6,0 13 7 WNW 1008,8 10
18.01.2019 05:00:00 -4,9 -6,1 11 6 NW 1008,2 10
18.01.2019 04:00:00 -4,6 -6,1 18 10 NNW 1007,7 10
18.01.2019 03:00:00 -4,0 -5,8 21 11 NNW 1006,8 10
18.01.2019 02:00:00 -3,8 -5,3 16 9 NNW 1005,4 10
18.01.2019 01:00:00 -3,1 -4,8 22 12 N 1004,2 10
18.01.2019 00:00:00 -2,2 -3,9 22 12 N 1002,7 10
17.01.2019 23:00:00 -2,0 -3,7 24 13 N 1001,3 10
17.01.2019 22:00:00 -2,0 -3,6 22 12 N 999,7 10
17.01.2019 21:00:00 -1,5 -2,6 21 11 NNW 998,6 10
17.01.2019 20:00:00 -1,0 -1,6 21 11 NNW 996,9 10
17.01.2019 19:00:00 -0,5 -0,6 21 11 NNW 995,2 10
17.01.2019 18:00:00 0,1 0,0 13 7 NNW 993,6 10
17.01.2019 17:00:00 0,1 -0,3 18 10 N 992,6 5
17.01.2019 16:00:00 0,7 0,1 16 9 NNW 991,4 7
17.01.2019 15:00:00 3,9 2,7 31 17 SW 990,1 10
17.01.2019 14:00:00 3,7 2,7 31 17 SW 990,6 8
17.01.2019 13:00:00 4,4 2,4 31 17 WSW 990,9 10
17.01.2019 12:00:00 4,7 2,7 31 17 WSW 991,1 10
17.01.2019 11:00:00 4,3 2,8 24 13 WSW 991,2 10
17.01.2019 10:00:00 4,3 2,6 34 18 WSW 990,9 10
17.01.2019 09:00:00 4,0 2,0 24 13 WSW 990,6 10
17.01.2019 08:00:00 4,0 2,5 28 15 WSW 989,9 10
17.01.2019 07:00:00 4,2 2,7 28 15 WSW 989,6 10
17.01.2019 06:00:00 4,1 2,9 28 15 WSW 989,6 10
17.01.2019 05:00:00 4,0 3,0 24 13 WSW 989,4 10
17.01.2019 04:00:00 3,9 3,2 28 15 WSW 989,7 10
17.01.2019 03:00:00 4,4 3,5 37 20 WSW 989,7 3,5
17.01.2019 02:00:00 4,3 3,6 35 19 SW 989,9 4,4
17.01.2019 01:00:00 4,3 3,6 37 20 SW 990,6 4,1
17.01.2019 00:00:00 4,6 4,0 35 19 SW 991,5 4,0
16.01.2019 23:00:00 5,0 4,4 37 20 SW 992,3 3,2
16.01.2019 22:00:00 5,3 4,7 37 20 SW 993,0 5
16.01.2019 21:00:00 5,4 4,8 35 19 SW 993,8 4,5
16.01.2019 20:00:00 6,0 5,3 37 20 WSW 994,2 10
16.01.2019 19:00:00 5,9 5,3 34 18 WSW 994,7 9
16.01.2019 18:00:00 5,8 5,5 35 19 WSW 995,3 5
16.01.2019 17:00:00 5,8 5,5 29 16 SW 995,9 5
16.01.2019 16:00:00 5,8 5,4 29 16 SW 996,7 6
16.01.2019 15:00:00 6,0 5,1 31 17 WSW 997,3 9
16.01.2019 14:00:00 6,1 5,1 28 15 WSW 997,9 7
16.01.2019 13:00:00 6,0 5,1 29 16 WSW 998,4 8
16.01.2019 12:00:00 5,8 4,9 29 16 WSW 999,1 9
16.01.2019 11:00:00 6,0 5,0 28 15 WSW 999,5 9
16.01.2019 10:00:00 5,9 5,2 28 15 WSW 999,9 8
16.01.2019 09:00:00 5,7 5,1 18 10 WSW 1000,0 7
16.01.2019 08:00:00 4,4 4,3 11 6 S 1000,0 6
16.01.2019 07:00:00 3,4 3,1 9 5 S 1000,4 3,8
16.01.2019 06:00:00 3,7 2,8 8 4 W 1001,0 10
16.01.2019 05:00:00 4,2 3,0 13 7 W 1001,4 10
16.01.2019 04:00:00 4,8 2,2 18 10 W 1001,3 10
16.01.2019 03:00:00 5,2 2,2 22 12 W 1001,2 10
16.01.2019 02:00:00 5,1 3,0 18 10 W 1000,9 10
16.01.2019 01:00:00 4,8 2,8 22 12 W 1000,7 10
16.01.2019 00:00:00 5,5 3,5 26 14 WNW 1000,4 7
15.01.2019 23:00:00 5,3 3,1 22 12 WNW 999,9 10
15.01.2019 22:00:00 4,9 2,9 31 17 WNW 999,4 10
15.01.2019 21:00:00 5,0 2,5 35 19 WNW 998,8 10
15.01.2019 20:00:00 5,4 2,9 37 20 WNW 998,4 10
15.01.2019 19:00:00 5,3 2,8 37 20 WNW 997,6 10
15.01.2019 18:00:00 6,0 3,8 37 20 WNW 997,2 10
15.01.2019 17:00:00 5,9 4,7 35 19 WNW 996,9 10

tt = Température de l'air
td = dewpoint
ff = Vitesse du vent
dd = Direction du vent
ppp = reduced air pressure
vv = visibility

stations d'obs. à proximité